GW6823 Weather Reports


time (UTC)temp
C
wind
direction
speed
KPH
gust
KPH
rain 1hr
cm
rain 24hr
cm
rain mn
cm
humidity
%
barometer
mb
20260502224000 21 322 9.7 22.5 0.00 0.00 0.00 40 1013.0
20260502223500 21 312 9.7 22.5 0.00 0.00 0.00 43 1013.0
20260502223000 21 322 11.3 19.3 0.00 0.00 0.00 44 1013.1
20260502222500 21 317 17.7 20.9 0.00 0.00 0.00 42 1013.0
20260502222000 21 358 16.1 24.1 0.00 0.00 0.00 39 1013.1
20260502221500 21 329 12.9 24.1 0.00 0.00 0.00 42 1013.0
20260502221000 21 341 6.4 20.9 0.00 0.00 0.00 41 1013.0
20260502220500 21 342 14.5 20.9 0.00 0.00 0.00 40 1013.0
20260502220000 21 335 12.9 29.0 0.00 0.00 0.00 42 1013.0
20260502215500 21 355 11.3 29.0 0.00 0.00 0.00 39 1013.0
20260502215001 21 331 8.0 24.1 0.00 0.00 0.00 40 1013.0
20260502214500 21 351 20.9 24.1 0.00 0.00 0.00 42 1013.0
20260502214000 21 2 11.3 22.5 0.00 0.00 0.00 37 1013.0
20260502213500 21 342 14.5 22.5 0.00 0.00 0.00 41 1013.1
20260502213000 21 296 19.3 22.5 0.00 0.00 0.00 46 1013.0
20260502212501 21 324 17.7 24.1 0.00 0.00 0.00 42 1013.1
20260502212000 21 317 16.1 29.0 0.00 0.00 0.00 39 1013.2
20260502211500 21 352 11.3 29.0 0.00 0.00 0.00 43 1013.2
20260502211000 21 329 6.4 29.0 0.00 0.00 0.00 43 1013.3
20260502210500 21 337 17.7 29.0 0.00 0.00 0.00 39 1013.3
20260502210000 21 327 8.0 27.4 0.00 0.00 0.00 36 1013.3
20260502205500 21 354 14.5 27.4 0.00 0.00 0.00 38 1013.3
20260502205000 21 333 8.0 24.1 0.00 0.00 0.00 38 1013.3
20260502204500 21 14 8.0 20.9 0.00 0.00 0.00 42 1013.2
20260502204000 21 305 8.0 16.1 0.00 0.00 0.00 42 1013.4
20260502203500 21 313 8.0 16.1 0.00 0.00 0.00 46 1013.5
20260502203000 21 319 3.2 22.5 0.00 0.00 0.00 41 1013.7
20260502202500 21 337 8.0 22.5 0.00 0.00 0.00 37 1013.7
20260502202000 21 326 17.7 19.3 0.00 0.00 0.00 44 1013.7
20260502201500 21 334 12.9 19.3 0.00 0.00 0.00 39 1013.8
20260502201000 21 321 9.7 24.1 0.00 0.00 0.00 40 1013.8
20260502200500 21 338 9.7 24.1 0.00 0.00 0.00 38 1013.9
20260502200000 21 315 11.3 24.1 0.00 0.00 0.00 45 1013.9
20260502195500 21 307 14.5 24.1 0.00 0.00 0.00 40 1013.9
20260502195000 21 321 24.1 24.1 0.00 0.00 0.00 40 1013.9
20260502194500 20 324 16.1 20.9 0.00 0.00 0.00 43 1013.9
20260502194000 20 323 9.7 20.9 0.00 0.00 0.00 44 1014.0
20260502193500 20 301 14.5 20.9 0.00 0.00 0.00 41 1014.0
20260502193000 21 337 9.7 20.9 0.00 0.00 0.00 43 1014.1
20260502192500 20 294 9.7 25.7 0.00 0.00 0.00 36 1014.2
20260502192000 21 307 16.1 25.7 0.00 0.00 0.00 38 1014.1
20260502191500 21 289 25.7 25.7 0.00 0.00 0.00 41 1014.2
20260502191000 21 276 19.3 19.3 0.00 0.00 0.00 41 1014.2
20260502190500 21 312 12.9 20.9 0.00 0.00 0.00 43 1014.2
20260502190000 21 338 9.7 25.7 0.00 0.00 0.00 43 1014.3
20260502185501 21 312 12.9 27.4 0.00 0.00 0.00 41 1014.5
20260502185000 21 283 14.5 27.4 0.00 0.00 0.00 38 1014.5
20260502184500 21 288 16.1 25.7 0.00 0.00 0.00 40 1014.5
20260502184000 21 329 6.4 25.7 0.00 0.00 0.00 41 1014.5
20260502183500 20 328 17.7 22.5 0.00 0.00 0.00 44 1014.4
20260502183001 20 297 14.5 17.7 0.00 0.00 0.00 37 1014.6
20260502182500 20 275 9.7 17.7 0.00 0.00 0.00 43 1014.5
20260502182000 20 301 8.0 22.5 0.00 0.00 0.00 43 1014.6
20260502181501 20 308 14.5 27.4 0.00 0.00 0.00 47 1014.7
20260502181000 20 324 11.3 29.0 0.00 0.00 0.00 41 1014.7
20260502180500 20 292 20.9 29.0 0.00 0.00 0.00 42 1014.8
20260502170500 20 286 11.3 20.9 0.00 0.00 0.00 47 1015.4
20260502164000 20 275 19.3 19.3 0.00 0.00 0.00 46 1015.5
20260502163500 18 278 9.7 16.1 0.00 0.00 0.00 44 1015.6
20260502163000 18 328 8.0 16.1 0.00 0.00 0.00 40 1015.5
20260502162500 19 285 11.3 16.1 0.00 0.00 0.00 45 1015.5
20260502162000 18 332 8.0 19.3 0.00 0.00 0.00 43 1015.6
20260502161500 18 270 8.0 19.3 0.00 0.00 0.00 47 1015.6
20260502161001 18 283 8.0 17.7 0.00 0.00 0.00 47 1015.5
20260502160501 18 245 8.0 17.7 0.00 0.00 0.00 45 1015.6
20260502152001 17 280 8.0 12.9 0.00 0.00 0.00 46 1015.6
20260502151500 18 275 8.0 12.9 0.00 0.00 0.00 45 1015.6
20260502151000 17 301 3.2 9.7 0.00 0.00 0.00 45 1015.6
20260502150500 17 306 3.2 11.3 0.00 0.00 0.00 46 1015.5
20260502130500 12 274 4.8 6.4 0.00 0.00 0.00 82 1014.3
20260502123501 10 301 3.2 4.8 0.00 0.00 0.00 89 1013.7
20260502123000 10 295 3.2 4.8 0.00 0.00 0.00 90 1013.5
20260502122500 10 253 1.6 3.2 0.00 0.00 0.00 90 1013.5
20260502122000 9 246 1.6 3.2 0.00 0.00 0.00 89 1013.4
20260502121506 9 341 0.0 3.2 0.00 0.00 0.00 89 1013.4
20260502121000 9 296 1.6 3.2 0.00 0.00 0.00 89 1013.3
20260502120506 9 277 3.2 3.2 0.00 0.00 0.00 90 1013.2
20260502115500 9 298 1.6 3.2 0.00 0.00 0.00 89 1013.1
20260502115000 8 278 3.2 3.2 0.00 0.00 0.00 89 1013.0
20260502114500 8 269 1.6 3.2 0.00 0.00 0.00 89 1013.0
20260502114000 8 263 1.6 4.8 0.00 0.00 0.00 89 1012.8
20260502113500 8 278 3.2 4.8 0.00 0.00 0.00 88 1012.7
20260502113000 9 286 3.2 4.8 0.00 0.00 0.00 88 1012.6
20260502112500 9 279 4.8 4.8 0.00 0.00 0.00 87 1012.6
20260502112000 9 267 3.2 3.2 0.00 0.00 0.00 86 1012.6
20260502111500 9 220 1.6 3.2 0.00 0.00 0.00 85 1012.5
20260502111000 10 266 1.6 3.2 0.00 0.00 0.00 84 1012.4
20260502110500 9 269 1.6 3.2 0.00 0.00 0.00 85 1012.4
20260502110000 10 240 3.2 3.2 0.00 0.00 0.00 84 1012.5
20260502105500 10 219 1.6 1.6 0.00 0.00 0.00 83 1012.4
20260502105001 10 257 1.6 1.6 0.00 0.00 0.00 83 1012.4
20260502104500 10 254 1.6 1.6 0.00 0.00 0.00 84 1012.3
20260502104000 10 236 1.6 1.6 0.00 0.00 0.00 83 1012.3
20260502103500 10 292 1.6 1.6 0.00 0.00 0.00 84 1012.3
20260502103000 10 239 1.6 1.6 0.00 0.00 0.00 84 1012.3
20260502102500 10 235 1.6 3.2 0.00 0.00 0.00 84 1012.3
20260502102000 10 288 1.6 3.2 0.00 0.00 0.00 84 1012.2
20260502101500 10 279 1.6 1.6 0.00 0.00 0.00 84 1012.2
20260502101000 10 245 1.6 1.6 0.00 0.00 0.00 84 1012.1
20260502100500 10 224 1.6 1.6 0.00 0.00 0.00 85 1012.1
20260502091500 10 87 1.6 1.6 0.00 0.00 0.00 84 1011.7
20260502091000 10 335 1.6 1.6 0.00 0.00 0.00 84 1011.7
20260502090500 10 357 1.6 1.6 0.00 0.00 0.00 83 1011.7
20260502071500 12 70 0.0 1.6 0.00 0.00 0.00 80 1011.7
20260502071000 12 293 1.6 1.6 0.00 0.00 0.00 78 1011.8
20260502070500 12 239 1.6 1.6 0.00 0.00 0.00 79 1011.8
20260502070000 12 245 1.6 1.6 0.00 0.00 0.00 78 1011.8
20260502065500 12 227 1.6 1.6 0.00 0.00 0.00 80 1011.9
20260502065000 12 214 1.6 3.2 0.00 0.00 0.00 80 1011.9
20260502064500 12 143 0.0 4.8 0.00 0.00 0.00 80 1012.0
20260502064000 12 341 3.2 4.8 0.00 0.00 0.00 80 1012.0
20260502063500 12 336 1.6 4.8 0.00 0.00 0.00 80 1012.1
20260502063000 12 17 1.6 4.8 0.00 0.00 0.00 80 1012.2
20260502062500 12 283 3.2 3.2 0.00 0.00 0.00 80 1012.3
20260502062000 12 272 1.6 3.2 0.00 0.00 0.00 80 1012.2
20260502061000 12 106 1.6 1.6 0.00 0.00 0.00 81 1012.1
20260502060500 12 198 1.6 1.6 0.00 0.00 0.00 83 1012.0
20260502060000 12 166 1.6 4.8 0.00 0.00 0.00 82 1012.0
20260502055500 12 106 1.6 4.8 0.00 0.00 0.00 81 1012.0
20260502055000 12 306 3.2 4.8 0.00 0.00 0.00 82 1012.0
20260502054500 12 312 1.6 4.8 0.00 0.00 0.00 81 1012.1
20260502054000 12 312 4.8 4.8 0.00 0.00 0.00 81 1012.2
20260502053500 12 308 4.8 4.8 0.00 0.00 0.00 81 1012.3
20260502053000 12 298 3.2 3.2 0.00 0.00 0.00 81 1012.3
20260502052500 12 281 3.2 3.2 0.00 0.00 0.00 79 1012.3
20260502052000 12 251 3.2 3.2 0.00 0.00 0.00 79 1012.3
20260502051500 12 235 3.2 3.2 0.00 0.00 0.00 81 1012.3
20260502051000 12 248 1.6 3.2 0.00 0.00 0.00 81 1012.2
20260502050500 12 227 1.6 3.2 0.00 0.00 0.00 80 1012.1
20260502050000 13 281 1.6 3.2 0.00 0.00 0.00 76 1012.0
20260502045500 13 289 1.6 3.2 0.00 0.00 0.00 77 1012.0
20260502045000 12 263 1.6 3.2 0.00 0.00 0.00 77 1012.0
20260502044500 12 250 1.6 1.6 0.00 0.00 0.00 79 1011.9
20260502044000 12 228 1.6 1.6 0.00 0.00 0.00 80 1011.9
20260502043500 12 310 0.0 4.8 0.00 0.00 0.00 80 1011.8
20260502043000 12 292 1.6 4.8 0.00 0.00 0.00 78 1011.8
20260502042500 12 272 1.6 3.2 0.00 0.00 0.00 79 1011.9
20260502042000 12 256 3.2 3.2 0.00 0.00 0.00 83 1012.0
20260502041500 12 277 1.6 3.2 0.00 0.00 0.00 84 1011.9
20260502041000 12 283 3.2 3.2 0.00 0.00 0.00 83 1011.9
20260502040500 12 298 3.2 3.2 0.00 0.00 0.00 82 1011.9
20260502040000 13 302 3.2 4.8 0.00 0.00 0.00 80 1012.0
20260502035500 13 321 3.2 4.8 0.00 0.00 0.00 78 1011.9
20260502035000 13 317 4.8 4.8 0.00 0.00 0.00 75 1012.0
20260502034500 13 314 3.2 3.2 0.00 0.00 0.00 76 1012.0
20260502034000 13 307 1.6 1.6 0.00 0.00 0.00 74 1012.0
20260502033500 13 281 1.6 1.6 0.00 0.00 0.00 75 1012.0
20260502033000 13 289 0.0 1.6 0.00 0.00 0.00 74 1012.0
20260502032500 13 345 1.6 1.6 0.00 0.00 0.00 74 1011.9
20260502032000 13 4 0.0 3.2 0.00 0.00 0.00 73 1011.9
20260502031500 13 1 1.6 3.2 0.00 0.00 0.00 71 1011.8
20260502031000 13 39 1.6 1.6 0.00 0.00 0.00 70 1011.7
20260502030501 13 113 1.6 3.2 0.00 0.00 0.00 70 1011.8
20260502030000 14 79 1.6 4.8 0.00 0.00 0.00 69 1011.9
20260502025500 14 33 1.6 4.8 0.00 0.00 0.00 66 1011.9
20260502025000 14 20 3.2 6.4 0.00 0.00 0.00 66 1011.7
20260502024500 14 6 4.8 8.0 0.00 0.00 0.00 65 1011.6
20260502024000 14 8 4.8 8.0 0.00 0.00 0.00 64 1011.5
20260502023500 15 12 3.2 9.7 0.00 0.00 0.00 64 1011.5
20260502023000 15 10 6.4 9.7 0.00 0.00 0.00 63 1011.5
20260502022500 15 11 4.8 9.7 0.00 0.00 0.00 64 1011.3
20260502022000 15 5 8.0 9.7 0.00 0.00 0.00 63 1011.2
20260502021500 15 12 4.8 9.7 0.00 0.00 0.00 62 1011.2
20260502021000 15 18 8.0 9.7 0.00 0.00 0.00 61 1011.3
20260502020500 15 21 6.4 8.0 0.00 0.00 0.00 64 1011.2
20260502020000 15 36 6.4 8.0 0.00 0.00 0.00 65 1011.3
20260502015500 15 34 4.8 9.7 0.00 0.00 0.00 63 1011.5
20260502015000 15 41 6.4 9.7 0.00 0.00 0.00 64 1011.6
20260502014500 15 30 3.2 6.4 0.00 0.00 0.00 66 1011.7
20260502014000 15 34 3.2 6.4 0.00 0.00 0.00 67 1011.6
20260502013500 15 40 3.2 4.8 0.00 0.00 0.00 72 1011.6
20260502013000 15 39 3.2 4.8 0.00 0.00 0.00 74 1011.6
20260502012500 15 78 3.2 3.2 0.00 0.00 0.00 69 1011.8
20260502012000 15 59 3.2 4.8 0.00 0.00 0.00 67 1011.8
20260502011500 15 52 3.2 4.8 0.00 0.00 0.00 68 1011.7
20260502010954 15 33 4.8 4.8 0.00 0.00 0.00 64 1011.7
20260502010454 15 61 1.6 3.2 0.00 0.00 0.00 65 1011.8
20260502005954 15 86 3.2 4.8 0.00 0.00 0.00 63 1011.6
20260502005454 15 54 3.2 6.4 0.00 0.00 0.00 63 1011.7
20260502004954 15 58 4.8 6.4 0.00 0.00 0.00 62 1011.3
20260502004454 15 60 3.2 6.4 0.00 0.00 0.00 61 1011.5
20260502003959 16 60 4.8 6.4 0.00 0.00 0.00 58 1011.5
20260502003454 16 63 4.8 8.0 0.00 0.00 0.00 56 1011.6
20260502002954 16 69 3.2 8.0 0.00 0.00 0.00 53 1011.6
20260502002012 16 49 6.4 12.9 0.00 0.00 0.00 50 1011.4
20260502001006 16 59 8.0 14.5 0.00 0.00 0.00 48 1010.8
20260502000506 16 51 4.8 14.5 0.00 0.00 0.00 46 1010.5
20260502000006 16 35 6.4 16.1 0.00 0.00 0.00 45 1010.3
20260501235506 17 8 8.0 16.1 0.00 0.00 0.00 47 1010.1
20260501235006 17 57 8.0 12.9 0.00 0.00 0.00 48 1010.1
20260501234506 17 41 9.7 14.5 0.00 0.00 0.00 47 1010.3
20260501234006 17 65 9.7 14.5 0.00 0.00 0.00 47 1010.4
20260501233506 17 64 11.3 14.5 0.00 0.00 0.00 48 1010.5
20260501233006 17 36 9.7 14.5 0.00 0.00 0.00 47 1010.5
20260501232506 17 54 6.4 16.1 0.00 0.00 0.00 47 1010.3
20260501232007 17 47 8.0 16.1 0.00 0.00 0.00 47 1010.2
20260501231506 17 38 8.0 17.7 0.00 0.00 0.00 47 1010.1
20260501231006 17 22 8.0 17.7 0.00 0.00 0.00 47 1010.3
20260501230506 17 18 12.9 17.7 0.00 0.00 0.00 42 1010.5
20260501230006 17 39 9.7 17.7 0.00 0.00 0.00 43 1010.3
20260501225506 17 27 12.9 16.1 0.00 0.00 0.00 47 1010.2
20260501225006 17 42 11.3 17.7 0.00 0.00 0.00 45 1010.3
20260501224506 17 51 6.4 20.9 0.00 0.00 0.00 45 1010.3